sat.trackr.live / text

‹ back to catalog

STARLINK-6165

NORAD 57127 · 2023-090AC

PAYLOAD ACTIVE UNKNOWN

§ Identity

Operator
Country
US
Launch date
2023-06-23
Launch site
AFETR
Launch vehicle
Mass (kg)
RCS (m²)

Purposes: comms

External: N2YO · Heavens-Above · Gunter

§ Orbital elements

Epoch: 2026-09-20T08:07:57.434016Z

Period
94.27 min
Inclination
43.0010°
Eccentricity
0.0001274
Mean motion
15.27574974 rev/d
Perigee alt
482.2 km
Apogee alt
483.9 km
Semi-major
6,861.2 km
B*
4.5818e-6
RAAN
262.0857°
Arg perigee
259.7057°
Mean anomaly
100.3651°
Rev number
17,991

§ Raw data

STARLINK-61651 57127U 23090AC  26263.33885919 -.00000136  00000+0  45818-5 0  99922 57127  43.0010 262.0857 0001274 259.7057 100.3651 15.27574974179915

JSON: /api/v1/satellites/57127 · /tle

For live sub-satellite position, see the globe view (requires WebGL).

§ Visibility from observer

Set your observer location to see the next 7 days of passes ≥ 10°. The values pass through the URL so the page stays shareable.

No JS? Fill the form by hand. The geolocation button needs JavaScript.